| time (UTC) | temp F | wind direction | speed knots | gust knots | rain 1hr in | rain 24hr in | rain mn in | humidity % | barometer mb |
| 20260505190423 | 67 | 325 | 0.9 | 2.6 | 0.00 | 0.00 | 0.00 | 39 | 1013.0 |
| 20260505185923 | 67 | 351 | 1.7 | 3.5 | 0.00 | 0.00 | 0.00 | 40 | 1013.0 |
| 20260505185423 | 67 | 65 | 1.7 | 3.5 | 0.00 | 0.00 | 0.00 | 39 | 1013.0 |
| 20260505184928 | 66 | 11 | 1.7 | 4.3 | 0.00 | 0.00 | 0.00 | 40 | 1013.2 |
| 20260505184923 | 66 | 38 | 1.7 | 4.3 | 0.00 | 0.00 | 0.00 | 40 | 1013.1 |
| 20260505183923 | 66 | 96 | 1.7 | 4.3 | 0.00 | 0.00 | 0.00 | 39 | 1013.2 |
| 20260505183421 | 66 | 30 | 0.9 | 2.6 | 0.00 | 0.00 | 0.00 | 41 | 1013.2 |
| 20260505182920 | 65 | 9 | 0.9 | 3.5 | 0.00 | 0.00 | 0.00 | 40 | 1013.4 |
| 20260505182421 | 66 | 63 | 1.7 | 5.2 | 0.00 | 0.00 | 0.00 | 40 | 1013.6 |
| 20260505181920 | 66 | 13 | 1.7 | 5.2 | 0.00 | 0.00 | 0.00 | 40 | 1013.7 |
| 20260505181422 | 65 | 81 | 1.7 | 4.3 | 0.00 | 0.00 | 0.00 | 41 | 1013.6 |
| 20260505180927 | 65 | 333 | 1.7 | 4.3 | 0.00 | 0.00 | 0.00 | 42 | 1013.6 |
| 20260505180920 | 65 | 355 | 0.9 | 4.3 | 0.00 | 0.00 | 0.00 | 42 | 1013.5 |
| 20260505180422 | 64 | 0 | 1.7 | 4.3 | 0.00 | 0.00 | 0.00 | 42 | 1013.5 |
| 20260505175921 | 64 | 30 | 1.7 | 4.3 | 0.00 | 0.00 | 0.00 | 42 | 1013.6 |
| 20260505174921 | 65 | 331 | 1.7 | 4.3 | 0.00 | 0.00 | 0.00 | 41 | 1013.6 |
| 20260505174426 | 65 | 346 | 1.7 | 7.0 | 0.00 | 0.00 | 0.00 | 41 | 1013.8 |
| 20260505174421 | 65 | 338 | 1.7 | 5.2 | 0.00 | 0.00 | 0.00 | 41 | 1013.6 |
| 20260505174032 | 65 | 338 | 1.7 | 7.0 | 0.00 | 0.00 | 0.00 | 43 | 1013.7 |
| 20260505172920 | 64 | 21 | 1.7 | 5.2 | 0.00 | 0.00 | 0.00 | 43 | 1013.8 |
| 20260505172423 | 64 | 348 | 0.9 | 3.5 | 0.00 | 0.00 | 0.00 | 44 | 1013.8 |
| 20260505172419 | 64 | 61 | 1.7 | 5.2 | 0.00 | 0.00 | 0.00 | 42 | 1013.8 |
| 20260505171418 | 63 | 37 | 0.9 | 3.5 | 0.00 | 0.00 | 0.00 | 43 | 1013.7 |
| 20260505170918 | 64 | 51 | 1.7 | 3.5 | 0.00 | 0.00 | 0.00 | 42 | 1013.6 |
| 20260505170423 | 63 | 61 | 1.7 | 7.8 | 0.00 | 0.00 | 0.00 | 43 | 1013.8 |
| 20260505170418 | 63 | 331 | 1.7 | 7.8 | 0.00 | 0.00 | 0.00 | 43 | 1013.8 |
| 20260505165418 | 63 | 71 | 0.9 | 3.5 | 0.00 | 0.00 | 0.00 | 43 | 1013.8 |
| 20260505164917 | 62 | 56 | 0.9 | 4.3 | 0.00 | 0.00 | 0.00 | 43 | 1013.7 |
| 20260505164417 | 62 | 312 | 1.7 | 4.3 | 0.00 | 0.00 | 0.00 | 44 | 1013.7 |
| 20260505163917 | 62 | 64 | 0.9 | 4.3 | 0.00 | 0.00 | 0.00 | 43 | 1013.7 |
| 20260505163417 | 62 | 349 | 0.9 | 2.6 | 0.00 | 0.00 | 0.00 | 43 | 1013.8 |
| 20260505162916 | 62 | 327 | 0.9 | 3.5 | 0.00 | 0.00 | 0.00 | 44 | 1013.7 |
| 20260505162422 | 60 | 344 | 1.7 | 3.5 | 0.00 | 0.00 | 0.00 | 45 | 1014.0 |
| 20260505162415 | 62 | 15 | 1.7 | 4.3 | 0.00 | 0.00 | 0.00 | 44 | 1013.8 |
| 20260505161915 | 61 | 72 | 1.7 | 4.3 | 0.00 | 0.00 | 0.00 | 44 | 1014.0 |
| 20260505161414 | 60 | 49 | 1.7 | 3.5 | 0.00 | 0.00 | 0.00 | 44 | 1014.1 |
| 20260505160415 | 60 | 350 | 0.9 | 3.5 | 0.00 | 0.00 | 0.00 | 44 | 1014.0 |
| 20260505160411 | 60 | 331 | 1.7 | 3.5 | 0.00 | 0.00 | 0.00 | 43 | 1014.0 |
| 20260505152910 | 59 | 355 | 1.7 | 4.3 | 0.00 | 0.00 | 0.00 | 46 | 1013.3 |
| 20260505152411 | 58 | 355 | 1.7 | 4.3 | 0.00 | 0.00 | 0.00 | 46 | 1013.2 |
| 20260505151908 | 58 | 5 | 1.7 | 4.3 | 0.00 | 0.00 | 0.00 | 46 | 1013.1 |
| 20260505151409 | 58 | 348 | 1.7 | 4.3 | 0.00 | 0.00 | 0.00 | 46 | 1013.1 |
| 20260505150907 | 58 | 9 | 1.7 | 4.3 | 0.00 | 0.00 | 0.00 | 48 | 1013.1 |
| 20260505150407 | 57 | 348 | 1.7 | 5.2 | 0.00 | 0.00 | 0.00 | 48 | 1013.0 |
| 20260505140404 | 54 | 334 | 2.6 | 5.2 | 0.00 | 0.00 | 0.00 | 51 | 1013.0 |
| 20260505124854 | 54 | 18 | 0.9 | 3.5 | 0.00 | 0.00 | 0.00 | 56 | 1011.6 |
| 20260505124352 | 54 | 340 | 0.9 | 2.6 | 0.00 | 0.00 | 0.00 | 56 | 1011.6 |
| 20260505123853 | 54 | 327 | 0.9 | 2.6 | 0.00 | 0.00 | 0.00 | 56 | 1011.4 |
| 20260505123352 | 54 | 355 | 0.9 | 3.5 | 0.00 | 0.00 | 0.00 | 56 | 1011.3 |
| 20260505122848 | 55 | 329 | 0.9 | 3.5 | 0.00 | 0.00 | 0.00 | 56 | 1011.0 |
| 20260505122347 | 55 | 5 | 0.9 | 3.5 | 0.00 | 0.00 | 0.00 | 56 | 1010.9 |
| 20260505121847 | 55 | 12 | 0.9 | 3.5 | 0.00 | 0.00 | 0.00 | 57 | 1010.8 |
| 20260505121843 | 55 | 340 | 0.9 | 3.5 | 0.00 | 0.00 | 0.00 | 58 | 1010.8 |
| 20260505120842 | 55 | 302 | 0.9 | 2.6 | 0.00 | 0.00 | 0.00 | 59 | 1010.7 |
| 20260505120342 | 56 | 0 | 0.9 | 2.6 | 0.00 | 0.00 | 0.00 | 58 | 1010.8 |
| 20260505115840 | 56 | 0 | 0.9 | 2.6 | 0.00 | 0.00 | 0.00 | 58 | 1010.8 |
| 20260505115340 | 56 | 284 | 0.9 | 2.6 | 0.00 | 0.00 | 0.00 | 58 | 1010.8 |
| 20260505114840 | 56 | 340 | 0.9 | 3.5 | 0.00 | 0.00 | 0.00 | 58 | 1010.7 |
| 20260505114340 | 56 | 11 | 0.9 | 3.5 | 0.00 | 0.00 | 0.00 | 58 | 1010.7 |
| 20260505113838 | 57 | 13 | 0.9 | 3.5 | 0.00 | 0.00 | 0.00 | 58 | 1010.6 |
| 20260505113336 | 57 | 351 | 0.9 | 3.5 | 0.00 | 0.00 | 0.00 | 57 | 1010.5 |
| 20260505112836 | 57 | 55 | 1.7 | 4.3 | 0.00 | 0.00 | 0.00 | 57 | 1010.5 |
| 20260505112338 | 57 | 61 | 1.7 | 4.3 | 0.00 | 0.00 | 0.00 | 56 | 1010.2 |
| 20260505111836 | 58 | 0 | 1.7 | 3.5 | 0.00 | 0.00 | 0.00 | 56 | 1010.4 |
| 20260505111336 | 58 | 333 | 2.6 | 4.3 | 0.00 | 0.00 | 0.00 | 55 | 1010.5 |
| 20260505110837 | 58 | 327 | 2.6 | 5.2 | 0.00 | 0.00 | 0.00 | 54 | 1010.4 |
| 20260505110338 | 59 | 48 | 2.6 | 5.2 | 0.00 | 0.00 | 0.00 | 53 | 1010.3 |
| 20260505101833 | 65 | 346 | 3.5 | 7.8 | 0.00 | 0.00 | 0.00 | 31 | 1009.7 |
| 20260505101331 | 67 | 342 | 2.6 | 7.0 | 0.00 | 0.00 | 0.00 | 29 | 1009.7 |
| 20260505100832 | 67 | 332 | 2.6 | 4.3 | 0.00 | 0.00 | 0.00 | 28 | 1009.6 |
| 20260505100332 | 68 | 329 | 2.6 | 4.3 | 0.00 | 0.00 | 0.00 | 28 | 1009.4 |
| 20260505095831 | 67 | 320 | 3.5 | 10.4 | 0.00 | 0.00 | 0.00 | 27 | 1009.1 |
| 20260505095336 | 67 | 315 | 2.6 | 6.1 | 0.00 | 0.00 | 0.00 | 28 | 1008.8 |
| 20260505095330 | 67 | 328 | 3.5 | 10.4 | 0.00 | 0.00 | 0.00 | 28 | 1009.0 |
| 20260505094831 | 66 | 288 | 3.5 | 7.0 | 0.00 | 0.00 | 0.00 | 29 | 1008.8 |
| 20260505093830 | 67 | 217 | 1.7 | 7.0 | 0.00 | 0.00 | 0.00 | 28 | 1008.1 |
| 20260505093335 | 67 | 256 | 1.7 | 5.2 | 0.00 | 0.00 | 0.00 | 28 | 1007.9 |
| 20260505093330 | 67 | 250 | 1.7 | 7.0 | 0.00 | 0.00 | 0.00 | 28 | 1008.0 |
| 20260505092335 | 67 | 225 | 1.7 | 5.2 | 0.00 | 0.00 | 0.00 | 27 | 1007.7 |
| 20260505092330 | 67 | 226 | 1.7 | 5.2 | 0.00 | 0.00 | 0.00 | 27 | 1007.8 |
| 20260505091335 | 67 | 214 | 1.7 | 6.1 | 0.00 | 0.00 | 0.00 | 27 | 1007.9 |
| 20260505091330 | 67 | 189 | 1.7 | 5.2 | 0.00 | 0.00 | 0.00 | 27 | 1007.9 |
| 20260505090828 | 67 | 222 | 1.7 | 6.1 | 0.00 | 0.00 | 0.00 | 27 | 1007.9 |
| 20260505085834 | 67 | 252 | 1.7 | 5.2 | 0.00 | 0.00 | 0.00 | 27 | 1007.9 |
| 20260505085828 | 67 | 284 | 1.7 | 3.5 | 0.00 | 0.00 | 0.00 | 27 | 1007.9 |
| 20260505084828 | 67 | 256 | 1.7 | 5.2 | 0.00 | 0.00 | 0.00 | 27 | 1007.8 |
| 20260505084328 | 67 | 225 | 1.7 | 5.2 | 0.00 | 0.00 | 0.00 | 27 | 1007.8 |
| 20260505083833 | 68 | 228 | 1.7 | 3.5 | 0.00 | 0.00 | 0.00 | 27 | 1007.7 |
| 20260505083828 | 68 | 223 | 1.7 | 5.2 | 0.00 | 0.00 | 0.00 | 27 | 1007.7 |
| 20260505083441 | 68 | 263 | 1.7 | 4.3 | 0.00 | 0.00 | 0.00 | 27 | 1007.7 |
| 20260505082327 | 68 | 221 | 1.7 | 6.1 | 0.00 | 0.00 | 0.00 | 26 | 1007.6 |
| 20260505081832 | 69 | 252 | 2.6 | 5.2 | 0.00 | 0.00 | 0.00 | 26 | 1007.6 |
| 20260505081826 | 69 | 267 | 2.6 | 6.1 | 0.00 | 0.00 | 0.00 | 26 | 1007.6 |
| 20260505080827 | 69 | 234 | 2.6 | 6.1 | 0.00 | 0.00 | 0.00 | 25 | 1007.7 |
| 20260505080330 | 70 | 247 | 2.6 | 6.1 | 0.00 | 0.00 | 0.00 | 25 | 1007.8 |
| 20260505080326 | 69 | 259 | 2.6 | 6.1 | 0.00 | 0.00 | 0.00 | 25 | 1007.7 |
| 20260505075331 | 70 | 248 | 1.7 | 6.1 | 0.00 | 0.00 | 0.00 | 25 | 1007.8 |
| 20260505075327 | 70 | 275 | 1.7 | 6.1 | 0.00 | 0.00 | 0.00 | 25 | 1007.8 |
| 20260505074326 | 70 | 259 | 1.7 | 6.1 | 0.00 | 0.00 | 0.00 | 25 | 1007.9 |
| 20260505073826 | 69 | 209 | 1.7 | 2.6 | 0.00 | 0.00 | 0.00 | 25 | 1007.9 |
| 20260505073331 | 69 | 262 | 1.7 | 3.5 | 0.00 | 0.00 | 0.00 | 25 | 1007.8 |
| 20260505073325 | 69 | 236 | 1.7 | 3.5 | 0.00 | 0.00 | 0.00 | 25 | 1007.9 |
| 20260505072325 | 69 | 263 | 1.7 | 5.2 | 0.00 | 0.00 | 0.00 | 25 | 1007.9 |
| 20260505071827 | 69 | 252 | 1.7 | 5.2 | 0.00 | 0.00 | 0.00 | 25 | 1007.9 |
| 20260505071325 | 69 | 182 | 0.9 | 3.5 | 0.00 | 0.00 | 0.00 | 25 | 1008.0 |
| 20260505070825 | 69 | 273 | 0.9 | 2.6 | 0.00 | 0.00 | 0.00 | 25 | 1008.0 |
| 20260505070330 | 70 | 252 | 0.9 | 2.6 | 0.00 | 0.00 | 0.00 | 25 | 1008.0 |
| 20260505070325 | 70 | 215 | 0.9 | 2.6 | 0.00 | 0.00 | 0.00 | 25 | 1007.9 |
| 20260505065942 | 70 | 194 | 0.9 | 2.6 | 0.00 | 0.00 | 0.00 | 25 | 1008.1 |
| 20260505065938 | 70 | 225 | 0.9 | 2.6 | 0.00 | 0.00 | 0.00 | 25 | 1008.0 |
| 20260505064326 | 70 | 251 | 0.9 | 2.6 | 0.00 | 0.00 | 0.00 | 24 | 1008.1 |
| 20260505063826 | 71 | 272 | 0.9 | 2.6 | 0.00 | 0.00 | 0.00 | 24 | 1008.1 |
| 20260505063324 | 71 | 196 | 0.9 | 2.6 | 0.00 | 0.00 | 0.00 | 24 | 1008.0 |
| 20260505062825 | 71 | 315 | 0.9 | 2.6 | 0.00 | 0.00 | 0.00 | 23 | 1008.0 |
| 20260505062331 | 72 | 253 | 1.7 | 5.2 | 0.00 | 0.00 | 0.00 | 23 | 1008.1 |
| 20260505062323 | 71 | 217 | 1.7 | 3.5 | 0.00 | 0.00 | 0.00 | 23 | 1008.0 |
| 20260505061824 | 72 | 249 | 1.7 | 4.3 | 0.00 | 0.00 | 0.00 | 24 | 1008.0 |
| 20260505060830 | 72 | 281 | 1.7 | 6.1 | 0.00 | 0.00 | 0.00 | 23 | 1008.0 |
| 20260505060824 | 72 | 74 | 1.7 | 6.1 | 0.00 | 0.00 | 0.00 | 23 | 1008.1 |
| 20260505055824 | 72 | 248 | 1.7 | 3.5 | 0.00 | 0.00 | 0.00 | 23 | 1008.1 |
| 20260505055325 | 72 | 236 | 1.7 | 5.2 | 0.00 | 0.00 | 0.00 | 24 | 1008.1 |
| 20260505054830 | 72 | 232 | 1.7 | 4.3 | 0.00 | 0.00 | 0.00 | 23 | 1008.1 |
| 20260505054826 | 72 | 277 | 1.7 | 5.2 | 0.00 | 0.00 | 0.00 | 23 | 1008.1 |
| 20260505053824 | 72 | 226 | 1.7 | 5.2 | 0.00 | 0.00 | 0.00 | 24 | 1008.2 |
| 20260505053329 | 72 | 247 | 1.7 | 3.5 | 0.00 | 0.00 | 0.00 | 24 | 1008.2 |
| 20260505053325 | 72 | 232 | 1.7 | 5.2 | 0.00 | 0.00 | 0.00 | 24 | 1008.2 |
| 20260505052935 | 71 | 267 | 1.7 | 4.3 | 0.00 | 0.00 | 0.00 | 24 | 1008.2 |
| 20260505051822 | 71 | 256 | 1.7 | 5.2 | 0.00 | 0.00 | 0.00 | 24 | 1008.2 |
| 20260505051322 | 71 | 229 | 1.7 | 5.2 | 0.00 | 0.00 | 0.00 | 24 | 1008.2 |
| 20260505050823 | 71 | 263 | 1.7 | 3.5 | 0.00 | 0.00 | 0.00 | 24 | 1008.4 |
| 20260505050327 | 71 | 146 | 1.7 | 5.2 | 0.00 | 0.00 | 0.00 | 24 | 1008.4 |
| 20260505050323 | 71 | 230 | 1.7 | 3.5 | 0.00 | 0.00 | 0.00 | 24 | 1008.5 |
| 20260505041319 | 72 | 187 | 1.7 | 7.0 | 0.00 | 0.00 | 0.00 | 24 | 1008.2 |
| 20260505040818 | 72 | 219 | 1.7 | 5.2 | 0.00 | 0.00 | 0.00 | 24 | 1008.2 |
| 20260505040323 | 71 | 292 | 1.7 | 3.5 | 0.00 | 0.00 | 0.00 | 25 | 1008.1 |
| 20260505040318 | 72 | 254 | 1.7 | 4.3 | 0.00 | 0.00 | 0.00 | 24 | 1008.2 |
| 20260505035319 | 71 | 207 | 1.7 | 3.5 | 0.00 | 0.00 | 0.00 | 25 | 1008.1 |
| 20260505034816 | 71 | 152 | 1.7 | 3.5 | 0.00 | 0.00 | 0.00 | 25 | 1008.2 |
| 20260505034315 | 71 | 187 | 1.7 | 3.5 | 0.00 | 0.00 | 0.00 | 25 | 1008.1 |
| 20260505033815 | 72 | 240 | 1.7 | 3.5 | 0.00 | 0.00 | 0.00 | 25 | 1008.2 |
| 20260505033314 | 72 | 198 | 1.7 | 3.5 | 0.00 | 0.00 | 0.00 | 25 | 1008.2 |
| 20260505032812 | 72 | 232 | 1.7 | 4.3 | 0.00 | 0.00 | 0.00 | 24 | 1008.1 |
| 20260505032312 | 73 | 231 | 1.7 | 5.2 | 0.00 | 0.00 | 0.00 | 24 | 1008.1 |
| 20260505031813 | 73 | 252 | 2.6 | 5.2 | 0.00 | 0.00 | 0.00 | 24 | 1008.1 |
| 20260505031312 | 73 | 211 | 2.6 | 5.2 | 0.00 | 0.00 | 0.00 | 24 | 1008.0 |
| 20260505030817 | 73 | 251 | 1.7 | 5.2 | 0.00 | 0.00 | 0.00 | 24 | 1008.0 |
| 20260505030812 | 73 | 202 | 1.7 | 5.2 | 0.00 | 0.00 | 0.00 | 24 | 1008.1 |
| 20260505025810 | 74 | 5 | 1.7 | 5.2 | 0.00 | 0.00 | 0.00 | 23 | 1007.9 |
| 20260505025310 | 74 | 269 | 1.7 | 5.2 | 0.00 | 0.00 | 0.00 | 23 | 1007.9 |
| 20260505024810 | 74 | 227 | 1.7 | 5.2 | 0.00 | 0.00 | 0.00 | 23 | 1007.9 |
| 20260505024312 | 74 | 218 | 0.9 | 4.3 | 0.00 | 0.00 | 0.00 | 23 | 1007.8 |
| 20260505024307 | 74 | 265 | 1.7 | 4.3 | 0.00 | 0.00 | 0.00 | 23 | 1007.8 |
| 20260505023920 | 74 | 194 | 0.9 | 3.5 | 0.00 | 0.00 | 0.00 | 23 | 1007.8 |
| 20260505022810 | 75 | 217 | 0.9 | 2.6 | 0.00 | 0.00 | 0.00 | 22 | 1007.8 |
| 20260505022806 | 75 | 216 | 0.9 | 2.6 | 0.00 | 0.00 | 0.00 | 23 | 1007.8 |
| 20260505022417 | 76 | 218 | 1.7 | 3.5 | 0.00 | 0.00 | 0.00 | 21 | 1007.8 |
| 20260505021305 | 76 | 213 | 1.7 | 3.5 | 0.00 | 0.00 | 0.00 | 21 | 1007.8 |
| 20260505020804 | 76 | 139 | 1.7 | 2.6 | 0.00 | 0.00 | 0.00 | 20 | 1007.7 |
| 20260505020303 | 76 | 212 | 0.9 | 3.5 | 0.00 | 0.00 | 0.00 | 18 | 1007.8 |
| 20260505015805 | 76 | 212 | 1.7 | 4.3 | 0.00 | 0.00 | 0.00 | 16 | 1007.7 |
| 20260505015303 | 77 | 240 | 0.9 | 4.3 | 0.00 | 0.00 | 0.00 | 16 | 1007.7 |
| 20260505014803 | 77 | 232 | 0.9 | 3.5 | 0.00 | 0.00 | 0.00 | 16 | 1007.6 |
| 20260505014304 | 78 | 252 | 1.7 | 4.3 | 0.00 | 0.00 | 0.00 | 15 | 1007.6 |
| 20260505013804 | 78 | 271 | 1.7 | 5.2 | 0.00 | 0.00 | 0.00 | 15 | 1007.6 |
| 20260505013302 | 78 | 261 | 1.7 | 7.0 | 0.00 | 0.00 | 0.00 | 14 | 1007.5 |
| 20260505012802 | 78 | 274 | 1.7 | 7.0 | 0.00 | 0.00 | 0.00 | 15 | 1007.5 |
| 20260505012304 | 79 | 296 | 2.6 | 6.1 | 0.00 | 0.00 | 0.00 | 14 | 1007.4 |
| 20260505011802 | 79 | 215 | 2.6 | 7.8 | 0.00 | 0.00 | 0.00 | 14 | 1007.2 |
| 20260505011302 | 79 | 222 | 3.5 | 7.8 | 0.00 | 0.00 | 0.00 | 14 | 1007.2 |
| 20260505010802 | 79 | 167 | 2.6 | 7.8 | 0.00 | 0.00 | 0.00 | 14 | 1007.4 |
| 20260505010301 | 80 | 293 | 2.6 | 7.8 | 0.00 | 0.00 | 0.00 | 14 | 1007.4 |
| 20260505005802 | 80 | 253 | 2.6 | 7.8 | 0.00 | 0.00 | 0.00 | 14 | 1007.4 |
| 20260505005303 | 80 | 236 | 2.6 | 7.8 | 0.00 | 0.00 | 0.00 | 13 | 1007.5 |
| 20260505004804 | 80 | 205 | 3.5 | 10.4 | 0.00 | 0.00 | 0.00 | 13 | 1007.5 |
| 20260505004306 | 81 | 232 | 4.3 | 9.6 | 0.00 | 0.00 | 0.00 | 13 | 1007.5 |
| 20260505004301 | 80 | 207 | 4.3 | 10.4 | 0.00 | 0.00 | 0.00 | 13 | 1007.6 |
| 20260505003306 | 81 | 255 | 3.5 | 8.7 | 0.00 | 0.00 | 0.00 | 13 | 1007.6 |
| 20260505003302 | 81 | 269 | 4.3 | 9.6 | 0.00 | 0.00 | 0.00 | 13 | 1007.6 |
| 20260505002301 | 81 | 267 | 3.5 | 13.9 | 0.00 | 0.00 | 0.00 | 14 | 1007.6 |
| 20260505001803 | 81 | 252 | 4.3 | 13.9 | 0.00 | 0.00 | 0.00 | 14 | 1007.6 |
| 20260505001303 | 81 | 255 | 4.3 | 7.8 | 0.00 | 0.00 | 0.00 | 14 | 1007.7 |
| 20260505000801 | 82 | 217 | 3.5 | 7.8 | 0.00 | 0.00 | 0.00 | 14 | 1007.7 |
| 20260505000301 | 82 | 277 | 3.5 | 9.6 | 0.00 | 0.00 | 0.00 | 13 | 1007.7 |
| 20260504235801 | 82 | 254 | 4.3 | 9.6 | 0.00 | 0.00 | 0.00 | 13 | 1007.6 |
| 20260504235304 | 82 | 110 | 3.5 | 10.4 | 0.00 | 0.00 | 0.00 | 13 | 1007.7 |
| 20260504234802 | 82 | 238 | 4.3 | 10.4 | 0.00 | 0.00 | 0.00 | 12 | 1007.6 |
| 20260504234302 | 82 | 257 | 4.3 | 9.6 | 0.00 | 0.00 | 0.00 | 13 | 1007.6 |
| 20260504233802 | 82 | 281 | 3.5 | 7.8 | 0.00 | 0.00 | 0.00 | 13 | 1007.6 |
| 20260504233306 | 83 | 242 | 3.5 | 11.3 | 0.00 | 0.00 | 0.00 | 14 | 1007.6 |
| 20260504233302 | 82 | 254 | 3.5 | 10.4 | 0.00 | 0.00 | 0.00 | 13 | 1007.6 |
| 20260504232304 | 83 | 294 | 4.3 | 11.3 | 0.00 | 0.00 | 0.00 | 13 | 1007.5 |
| 20260504231801 | 83 | 330 | 5.2 | 8.7 | 0.00 | 0.00 | 0.00 | 13 | 1007.5 |
| 20260504231302 | 83 | 315 | 4.3 | 7.8 | 0.00 | 0.00 | 0.00 | 13 | 1007.6 |
| 20260504230803 | 83 | 224 | 4.3 | 10.4 | 0.00 | 0.00 | 0.00 | 13 | 1007.6 |
| 20260504230301 | 83 | 294 | 5.2 | 10.4 | 0.00 | 0.00 | 0.00 | 12 | 1007.5 |
| 20260504225802 | 83 | 274 | 5.2 | 12.2 | 0.00 | 0.00 | 0.00 | 13 | 1007.5 |
| 20260504225304 | 83 | 257 | 4.3 | 12.2 | 0.00 | 0.00 | 0.00 | 12 | 1007.5 |
| 20260504225258 | 84 | 278 | 4.3 | 11.3 | 0.00 | 0.00 | 0.00 | 12 | 1007.4 |
| 20260504224911 | 84 | 276 | 4.3 | 9.6 | 0.00 | 0.00 | 0.00 | 12 | 1007.5 |
| 20260504223759 | 84 | 255 | 4.3 | 9.6 | 0.00 | 0.00 | 0.00 | 13 | 1007.4 |
| 20260504223755 | 84 | 230 | 3.5 | 9.6 | 0.00 | 0.00 | 0.00 | 13 | 1007.5 |
| 20260504222758 | 84 | 298 | 4.3 | 9.6 | 0.00 | 0.00 | 0.00 | 18 | 1007.6 |
| 20260504222753 | 84 | 211 | 3.5 | 8.7 | 0.00 | 0.00 | 0.00 | 16 | 1007.4 |
| 20260504221753 | 84 | 259 | 5.2 | 9.6 | 0.00 | 0.00 | 0.00 | 16 | 1007.7 |
| 20260504221250 | 85 | 269 | 4.3 | 13.0 | 0.00 | 0.00 | 0.00 | 16 | 1007.8 |
| 20260504220753 | 84 | 162 | 3.5 | 9.6 | 0.00 | 0.00 | 0.00 | 19 | 1007.8 |
| 20260504220749 | 85 | 292 | 3.5 | 13.0 | 0.00 | 0.00 | 0.00 | 17 | 1007.8 |
| 20260504215749 | 84 | 251 | 3.5 | 11.3 | 0.00 | 0.00 | 0.00 | 18 | 1007.9 |
| 20260504215250 | 85 | 248 | 3.5 | 11.3 | 0.00 | 0.00 | 0.00 | 19 | 1008.0 |
| 20260504214755 | 84 | 269 | 3.5 | 7.8 | 0.00 | 0.00 | 0.00 | 21 | 1008.4 |
| 20260504214749 | 84 | 280 | 2.6 | 8.7 | 0.00 | 0.00 | 0.00 | 21 | 1008.0 |
| 20260504214248 | 84 | 251 | 2.6 | 7.0 | 0.00 | 0.00 | 0.00 | 22 | 1008.2 |
| 20260504213247 | 84 | 219 | 4.3 | 8.7 | 0.00 | 0.00 | 0.00 | 21 | 1008.4 |
| 20260504212745 | 84 | 284 | 4.3 | 14.8 | 0.00 | 0.00 | 0.00 | 21 | 1008.6 |
| 20260504212246 | 84 | 306 | 3.5 | 14.8 | 0.00 | 0.00 | 0.00 | 22 | 1008.7 |
| 20260504211745 | 84 | 238 | 3.5 | 9.6 | 0.00 | 0.00 | 0.00 | 22 | 1008.7 |
| 20260504211243 | 84 | 303 | 2.6 | 7.0 | 0.00 | 0.00 | 0.00 | 21 | 1008.8 |
| 20260504210744 | 84 | 290 | 2.6 | 7.8 | 0.00 | 0.00 | 0.00 | 20 | 1008.8 |
| 20260504210241 | 84 | 262 | 3.5 | 7.8 | 0.00 | 0.00 | 0.00 | 20 | 1009.1 |
| 20260504205747 | 84 | 252 | 3.5 | 8.7 | 0.00 | 0.00 | 0.00 | 19 | 1009.1 |
| 20260504205742 | 84 | 250 | 3.5 | 7.8 | 0.00 | 0.00 | 0.00 | 20 | 1009.1 |
| 20260504205353 | 85 | 295 | 2.6 | 8.7 | 0.00 | 0.00 | 0.00 | 19 | 1009.1 |
| 20260504204241 | 85 | 215 | 3.5 | 7.8 | 0.00 | 0.00 | 0.00 | 19 | 1009.3 |
| 20260504203741 | 85 | 231 | 3.5 | 7.8 | 0.00 | 0.00 | 0.00 | 18 | 1009.4 |
| 20260504203242 | 86 | 290 | 2.6 | 7.8 | 0.00 | 0.00 | 0.00 | 19 | 1009.3 |
| 20260504202741 | 85 | 224 | 3.5 | 9.6 | 0.00 | 0.00 | 0.00 | 18 | 1009.4 |
| 20260504202239 | 85 | 229 | 3.5 | 9.6 | 0.00 | 0.00 | 0.00 | 17 | 1009.4 |
| 20260504201739 | 85 | 292 | 3.5 | 9.6 | 0.00 | 0.00 | 0.00 | 19 | 1009.5 |
| 20260504201240 | 85 | 251 | 4.3 | 9.6 | 0.00 | 0.00 | 0.00 | 19 | 1009.6 |
| 20260504200739 | 85 | 261 | 3.5 | 9.6 | 0.00 | 0.00 | 0.00 | 19 | 1009.6 |
| 20260504200239 | 85 | 182 | 3.5 | 7.8 | 0.00 | 0.00 | 0.00 | 19 | 1009.7 |
| 20260504195739 | 85 | 228 | 3.5 | 9.6 | 0.00 | 0.00 | 0.00 | 20 | 1009.6 |
| 20260504195239 | 85 | 300 | 2.6 | 9.6 | 0.00 | 0.00 | 0.00 | 21 | 1009.8 |
| 20260504194738 | 85 | 241 | 2.6 | 7.0 | 0.00 | 0.00 | 0.00 | 21 | 1009.7 |
| 20260504194236 | 85 | 171 | 2.6 | 7.0 | 0.00 | 0.00 | 0.00 | 22 | 1009.9 |
| 20260504193737 | 85 | 296 | 2.6 | 7.0 | 0.00 | 0.00 | 0.00 | 23 | 1009.9 |
| 20260504193235 | 84 | 236 | 3.5 | 9.6 | 0.00 | 0.00 | 0.00 | 22 | 1010.0 |
| 20260504192735 | 84 | 281 | 3.5 | 9.6 | 0.00 | 0.00 | 0.00 | 21 | 1010.2 |
| 20260504192235 | 85 | 293 | 2.6 | 7.8 | 0.00 | 0.00 | 0.00 | 23 | 1010.2 |
| 20260504191735 | 84 | 204 | 1.7 | 7.0 | 0.00 | 0.00 | 0.00 | 23 | 1010.3 |
| 20260504191239 | 83 | 267 | 2.6 | 11.3 | 0.00 | 0.00 | 0.00 | 23 | 1010.4 |
| 20260504191235 | 84 | 225 | 2.6 | 7.8 | 0.00 | 0.00 | 0.00 | 23 | 1010.3 |
| 20260504190848 | 83 | 178 | 2.6 | 11.3 | 0.00 | 0.00 | 0.00 | 23 | 1010.4 |